User: anonymous   Login
Location: ČR
(50.0000°N, 15.0000°E)
Time: 15:16:43
(UTC+00:00)
Language:

Altair - Orbit

View from above orbital plane
View from above orbital plane
View from above satellite
View from above satellite

Ground track
Ground track

The orbit data is extracted from the following two-line orbital elements,

1 00050U 60009B   21297.67900253 -.00000117  00000-0 -29838-3 0  9997
2 00050  47.2340  27.3567 0113202 358.4298   1.6124 12.20116495730561
Epoch (UTC): 24 October 2021 16:17:45
Eccentricity: 0.0113202
inclination: 47.2340°
perigee height: 1502 km
apogee height: 1682 km
right ascension of ascending node: 27.3567°
argument of perigee: 358.4298°
revolutions per day: 12.20116495
mean anomaly at epoch: 1.6124°
orbit number at epoch: 73056

The dashed part of the orbit path shows where the satellite is in the earth's shadow,  

DLR